This is the latest recevied weather packets stored in our database for station/object OE6JVE-13. If no packets are shown the sender has not sent any weather packets the latest 10 day(s).
| Time | Temp. | Humidity | Pressure | Rain* | Wind** | Luminosity | Snow |
|---|---|---|---|---|---|---|---|
| 1788222676 | 15.56° C | 99% | 1011.6 hPa | 0 mm | - | - | - |
| 1788222017 | 15.56° C | 99% | 1011.8 hPa | 0 mm | - | - | - |
| 1788221429 | 15.56° C | 99% | 1011.7 hPa | 0 mm | - | - | - |
| 1788220840 | 15.56° C | 99% | 1011.6 hPa | 0 mm | - | - | - |
| 1788220241 | 16.11° C | 99% | 1011.7 hPa | 0 mm | - | - | - |
| 1788219663 | 16.11° C | 99% | 1011.3 hPa | 0 mm | - | - | - |
| 1788219057 | 16.11° C | 99% | 1011.4 hPa | 0 mm | - | - | - |
| 1788218464 | 15.56° C | 99% | 1011.4 hPa | 0 mm | - | - | - |
| 1788217876 | 16.11° C | 99% | 1011.4 hPa | 0 mm | - | - | - |
| 1788217280 | 16.11° C | 99% | 1011.7 hPa | 0 mm | - | - | - |
| 1788216623 | 16.11° C | 99% | 1011.8 hPa | 0 mm | - | - | - |
| 1788216030 | 16.11° C | 99% | 1011.8 hPa | 0.25 mm | - | - | - |
| 1788215438 | 16.11° C | 99% | 1012.2 hPa | 0.25 mm | - | - | - |
| 1788214850 | 16.11° C | 98% | 1012.1 hPa | 1.02 mm | - | - | - |
| 1788214254 | 16.11° C | 97% | 1012.4 hPa | 3.05 mm | - | - | - |
| 1788213662 | 16.11° C | 97% | 1012.5 hPa | 5.33 mm | - | - | - |
| 1788213069 | 16.11° C | 96% | 1012 hPa | 7.37 mm | - | - | - |
| 1788212478 | 16.11° C | 95% | 1011.8 hPa | 7.11 mm | - | - | - |
| 1788211819 | 16.11° C | 94% | 1012.2 hPa | 7.11 mm | - | - | - |
| 1788211228 | 16.67° C | 93% | 1012.3 hPa | 6.1 mm | - | - | - |
| 1788210637 | 17.22° C | 91% | 1012.5 hPa | 4.06 mm | - | - | - |
| 1788210043 | 18.33° C | 94% | 1011.8 hPa | 2.03 mm | - | - | - |
| 1788209469 | 18.33° C | 98% | 1011.4 hPa | 0 mm | - | - | - |
| 1788208859 | 17.78° C | 97% | 1010.4 hPa | 0 mm | - | - | - |
| 1788208267 | 17.78° C | 96% | 1009.9 hPa | 0 mm | - | - | - |
* Rain latest hour (hover to see other rain measurements)
** Current wind speed in m/s (hover to see current wind gust speed)